Find Starlink 2252

NORAD ID: 48595 Int'l Des: 2021-041 Owner: SPXS Country: US Constellation: starlink operational
LEOCIRCULARSTARLINK_TYPE

实时位置

正在加载3D地球...

关于 Starlink 2252

正在加载描述...

即将过境

Passes for default location (London). Set your location on the main map for personalized predictions.

高度历史

Loading altitude history...

两行轨道根数

1 48595U 21041AU 26105.85415514 .00002867 00000-0 21119-3 0 9996
2 48595 53.0541 334.7816 0001529 92.4138 267.7026 15.06411953271934
Epoch: Apr 15, 2026 • Age: 18 hours

当前状态

高度 551.6 km
速度 7.59 km/s
星下点 48.26°N, 31.11°W
发射日期 May 15, 2021
运行时间 4.9 years
类型 internet

技术详情

分类 Payload
质量 260.00 kg
干质量 248.00 kg
总质量 260.00 kg
长度 0.20 m
直径 2.80 m
跨度 9.00 m
形状 Box + pan
制造商 SPXS
平台类型 Starlink
阶段状态 In Orbit
所有者/国家 SPXS/US

Most Searched